Regional Weather Roundup
Issued by NWS Goodland, KS

Home | Current Version | Previous Version | Text Only | Print | Product List | Glossary Off
Versions: 1 2 3 4 5 6 7 8 9 10 11 12 13 14 15 16 17 18 19 20 21 22 23 24 25 26 27 28 29 30 31 32 33 34 35 36 37 38 39 40 41 42 43 44 45 46 47 48 49 50

000
ASUS43 KGLD 022359
RWRGLD

GOODLAND FORECAST AREA HOURLY WEATHER ROUNDUP
NATIONAL WEATHER SERVICE GOODLAND KS
600 PM MDT SUN AUG 02 2015

...OFFICIAL OBSERVATIONS...

CITY           SKY/WX    TMP DP  RH WIND       PRES   REMARKS
GOODLAND KS    MOSUNNY   92  47  21 SE5       29.94F
HILL CITY KS   MOSUNNY   94  59  31 SE5       29.87S
IMPERIAL NEB   CLOUDY    85  55  35 E10G21    29.94R
MCCOOK NEB     LGT RAIN  81  54  39 N12       29.93R
AKRON CO       CLOUDY    84  48  28 E10G20    30.03R
BURLINGTON CO  MOSUNNY   88  50  27 S8        29.99F
LIMON CO       PTSUNNY   87  40  19 SE13      30.07F
$$

...UNOFFICIAL OBSERVATIONS...

CITY           SKY/WX    TMP DP  RH WIND       PRES   REMARKS
COLBY KS       SUNNY     93  59  31 SE8       29.93S
NORTON KS      MOSUNNY   82  43  24 N14G28    29.90R
SHARON SPRINGS   N/A     92  58  31 S6G17       N/A
KIT CARSON CO    N/A     93  48  21 MISG        N/A
$$


USA.gov is the U.S. government's official web portal to all federal, state and local government web resources and services.